Showing default

RASSVET-3 16, 68375

Orbit data source: Space-Track

RASSVET-3 16, 68375 is a payload satellite owned by Byuro 1440 (CIS) in LEO that was launched on Mon, 23 Mar 2026 UTC via a SOYUZ-2-1B launch vehicle from the Plesetsk Missile And Space Complex (PKMTR). Payload-class satellites include a variety of spacecraft equipped with specific instruments for various scientific and technological missions. These include communications satellites like Starlink; space stations such as the ISS; scientific satellites like the Hubble; Earth observation satellites from companies like Planet Labs, Umbra, and HawkEye 360; GPS; miniature CubeSats for education and research; and military/defense satellites.

Loading next visibility...
Identifier
68375, 2026-061R
Orbit
LEO
Country
Flag of CISCIS
Related business
Manufacturer
Byuro 1440
Mission
Operational Commercial Communications
Bus & Motor
RASSVET-2, Unknown motor
Mass
~370 kg wet, ~370 kg dry
Launch date (UTC)
2026-03-23 (4 months ago)
Launch vehicle
SOYUZ-2-1B
Launch site
Plesetsk Missile And Space Complex (PKMTR)
Object type
Payload
Rocket body
Debris
Shape & HBR
Box + 1 Pan, 2.1 m
Radar Cross Section
6.123 m², Large (>1 m²)

Expand to show TLE details & history
Last TLE update: 21 hours ago

TLE from 21 hours ago
0 RASSVET-3 16
1 68375U 26061R   26202.34350829  .00001758  00000-0  84981-4 0  9995
2 68375  82.2942 337.3872 0001040 164.8319 195.2945 15.18021109 18741
Epoch: 2026-07-21T08:14Z
TLE epoch observation values (Epoch: 2026-07-21T08:14:39.116Z)
Latitude
-0.00007°
Longitude
-85.39035°
Altitude
515.592 km
Speed
7.605 km/s
True Right ascension
22h 29m 32s
True Declination
0° 00' 00"
Sunlit
Object was in full shadow at epoch
Visualization orbit readout
Latitude
Unknown
Longitude
Unknown
Altitude
Unknown
Speed
Unknown
Apparent Right ascension
Unknown
Apparent Declination
Unknown
Sunlit
N/A
Visualization observer readout
Local Sidereal Time
18:09:18
Azimuth
Unknown
Elevation
Unknown
Doppler factor
Unknown
Orbital elements
Apogee altitude
509.52 km
Perigee altitude
508.087 km
Semi-major axis
6,886.94 km
Eccentricity
0.0001
Inclination
82.2942°
RAAN
337.3872°
Arg. of periapsis
164.8319°
True anomaly
195.29136°
Mean anomaly
195.2945°
Eccentric anomaly
195.29293°
Mean motion
3.79755 °/min
Orbital period
94.8 mins
BSTAR
0.000084981
Loading maneuver chart data...
Computing Atmospheric mass density...
Loading historical data...
Loading historical data...
Loading historical data...
Loading historical data...
Loading historical data...
Loading historical data...
Loading historical data...

Documentation

Showing up to 5 results
|